Simultaneous Nadir Overpasses (SNOs) Predictions

Prediction of SNOs between NOAA-19 and NPP Satellite Orbit:

Table of predicted SNOs for the next 14.0 days since TLE Epoch: 3/31/2012
Index Date (NOAA-19) Time (NOAA-19) NOAA-19 Lat,Lon Date (NPP) Time (NPP) NPP Lat,Lon Distance(km) Time Diff (sec)
1 04/09/2012 05:11:56 -80.53,-123.29 04/09/2012 05:13:09 -80.54,-123.42 2.43 73
2 04/09/2012 06:03:03 80.53, 43.91 04/09/2012 06:03:54 80.53, 43.99 1.39 51
3 04/09/2012 06:53:57 -80.43,-147.37 04/09/2012 06:54:35 -80.44,-147.53 3.15 38
4 04/09/2012 07:45:03 80.41, 20.17 04/09/2012 07:45:19 80.41, 20.21 0.69 16
5 04/09/2012 08:36:00 -80.38,-172.12 04/09/2012 08:36:02 -80.37,-171.99 2.68 2
6 04/09/2012 09:27:03 80.28, -3.62 04/09/2012 09:26:44 80.28, -3.62 0.11 19
7 04/09/2012 10:18:00
